Tracking 23764 objects as of 17-Oct-2021
HD Live streaming from Space Station
objects crossing your sky now

OPS 5805

Track OPS 5805 now!
OPS 5805 is classified as:


NORAD ID: 12093
Int'l Code: 1980-100A
Perigee: 1,507.5 km
Apogee: 38,896.1 km
Inclination: 63.8 °
Period: 718.5 minutes
Semi major axis: 26572 km
RCS: Unknown
Launch date: December 13, 1980
Source: United States (US)
Launch site: AIR FORCE WESTERN TEST RANGE (AFWTR)
aabbcc
Your satellite tracking list
Your tracking list is empty




NASA's NSSDC Master Catalog

Two Line Element Set (TLE):
1 12093U 80100A   21289.46579021  .00001200  00000-0  00000-0 0  9993
2 12093  63.8370  24.8165 7035121 277.1998  14.3921  2.00422770 17958
Source of the keplerian elements: AFSPC